Regional Weather Roundup
Issued by NWS Portland, ME

Home | Current Version | Previous Version | Text Only | Print | Product List | Glossary On
Versions: 1 2 3 4 5 6 7 8 9 10 11 12 13 14 15 16 17 18 19 20 21 22 23 24 25 26 27 28 29 30 31 32 33 34 35 36 37 38 39 40 41 42 43 44 45 46 47 48 49 50
000
ASUS41 KGYX 040210
RWRGYX
WEATHER ROUNDUP FOR MAINE AND NEW HAMPSHIRE
NATIONAL WEATHER SERVICE GRAY ME
1000 PM EDT SUN MAY 03 2015

MEZ002-005-006-010-012-015-018-020-021-024-026-027-029-040300-
MAINE

CITY           SKY/WX    TMP DP  RH WIND       PRES   REMARKS
PORTLAND       CLEAR     49  44  83 CALM      30.10S
SANFORD        CLEAR     45  37  76 CALM      30.11R
BAR HARBOR     CLEAR     43  41  93 S8        30.13S
WISCASSET      CLEAR     45  41  86 CALM      30.13R
ROCKLAND       FAIR      43  39  87 CALM      30.12S
FRYEBURG       CLEAR     51  43  74 CALM      30.09R
LEWISTONAUBURN CLEAR     46  41  81 CALM      30.10S
AUGUSTA        CLEAR     49  41  74 VRB5      30.10R
WATERVILLE     CLEAR     52  39  62 S7        30.07S
BANGOR         PTCLDY    47  41  80 S7        30.10R
GREENVILLE       N/A     55  41  59 CALM      30.05R
MILLINOCKET    CLEAR     58  44  60 CALM      30.06R
HOULTON        CLEAR     57  41  55 S6        30.04S
PRESQUE ISLE   MOCLDY    55  32  41 S5        30.03S
FRENCHVILLE    CLEAR     57  29  34 SE6       30.02R
CARIBOU        MOCLDY    58  32  37 SE3       30.02R
$$

NHZ002-005-008-009-011-012-014-040300-
NEW HAMPSHIRE

CITY           SKY/WX    TMP DP  RH WIND       PRES   REMARKS
PORTSMOUTH     PTCLDY    59  44  56 S6        30.08R
ROCHESTER      PTCLDY    58  44  60 S5        30.09R
NASHUA         PTCLDY    62  44  51 VRB5      30.11R
MANCHESTER     PTCLDY    63  42  46 S7        30.08R
CONCORD        PTCLDY    63  39  41 S7        30.09R
LACONIA        CLOUDY    66  36  32 S9        30.06R
PLYMOUTH       MOCLDY    54  49  82 CALM      30.07R
BERLIN         CLEAR     47  39  74 CALM      30.07R
WHITEFIELD     PTCLDY    50  41  71 CALM      30.07R
JAFFREY        PTCLDY    52  45  77 CALM      30.12R
KEENE          PTCLDY    57  43  58 CALM      30.10R
LEBANON        CLEAR     51  41  68 CALM      30.07R
MT WASHINGTON  PTCLDY    41  28  60 W20         N/A
$$

VTZ005-007-008-040300-
VERMONT

CITY           SKY/WX    TMP DP  RH WIND       PRES   REMARKS
ST JOHNSBURY     N/A     58  43  57 MISG      30.05R
MONTPELIER     MOCLDY    55  38  52 CALM      30.11R
BURLINGTON     PTCLDY    65  39  38 S7        30.04R
$$

MAZ007-012-024-CTZ003-RIZ002-NYZ038-NYZ072-040300-
SOUTHERN NEW ENGLAND AND NY

CITY           SKY/WX    TMP DP  RH WIND       PRES   REMARKS
BOSTON         PTCLDY    53  41  63 S8        30.14R
WORCESTER      PTCLDY    56  43  61 SW7       30.13R
NANTUCKET      CLEAR     47  43  86 SW7       30.20R
PROVIDENCE     PTCLDY    50  40  68 S9        30.17R
HARTFORD       PTCLDY    62  44  51 S9        30.12R
ALBANY         PTCLDY    61  40  45 S5        30.08R
NEW YORK CITY  PTCLDY    62  44  51 S7        30.13R
$$

ANZ081-ANZ082-ANZ150-NHZ014-MEZ023>029-040300-
COASTAL MARINE OBSERVATIONS

STATION/POSITION TIME  TEMP    WIND        PRES    WAVE
                       AIR SEA DIR/SP/G            HT/PER
                 (UTC) (F)     (DEG/KT/KT) (MB)    (FT/S)
$$

.............KEY..............
   WCI - WIND CHILL
   TC  - TEMPERATURE IN CELSIUS
   VSB - VISIBILITY IN MILES
   HX  - HEAT INDEX
   FAIR- INDICATES FEW OR NO CLOUDS BELOW 12,000 FT, WITH NO
         SIGNIFICANT WEATHER AND/OR OBSTRUCTIONS TO VISIBILITY.





USA.gov is the U.S. government's official web portal to all federal, state and local government web resources and services.